Starlink 11210

operational
NORAD ID: 60116 Int'l Des: 2024-118 Owner: SPXS Country: US Constellation: starlink
LEOCIRCULAR

关于 Starlink 11210

正在加载描述...

实时位置

正在加载3D地球...

即将过境

高度历史

Altitude vs Time

uPlot chart will show altitude changes over time

两行轨道根数

1 60116U 24118D 26095.25446234 -.00001532 00000-0 -77924-5 0 9999
2 60116 53.1591 90.4506 0001074 93.2106 266.9034 15.69698183102163
Epoch: Apr 5, 2026 • Age: 13 hours

当前状态

高度 379.0 km
速度 7.68 km/s
星下点 -53.31°S, 127.27°W
发射日期 Jun 24, 2024
运行时间 1.7 years
类型 internet

技术详情

分类 Payload
质量 960.00 kg
干质量 910.00 kg
总质量 960.00 kg
长度 0.30 m
直径 4.10 m
跨度 29.00 m
形状 Box + pan
制造商 SPXS
平台类型 Starlink V2MD
阶段状态 In Orbit
所有者/国家 SPXS/US

大型星座

Loading constellations...